This is the latest recevied weather packets stored in our database for station/object K6CED. If no packets are shown the sender has not sent any weather packets the latest 1 day(s).
| Time | Temp. | Humidity | Pressure | Rain* | Wind** | Luminosity | Snow |
|---|---|---|---|---|---|---|---|
| 1777999874 | 13.89° C | 77% | 1016.7 hPa | 0 mm | 0.45 m/s, 52° | 267 W/m² | - |
| 1777999570 | 13.89° C | 77% | 1016.9 hPa | 0 mm | 1.79 m/s, 118° | 207 W/m² | - |
| 1777999268 | 13.89° C | 76% | 1016.7 hPa | 0 mm | 1.34 m/s, 104° | 191 W/m² | - |
| 1777998966 | 14.44° C | 78% | 1016.6 hPa | 0 mm | 0.89 m/s, 73° | 221 W/m² | - |
| 1777998663 | 13.89° C | 78% | 1016.7 hPa | 0 mm | 1.79 m/s, 115° | 270 W/m² | - |
| 1777998360 | 14.44° C | 79% | 1016.5 hPa | 0 mm | 0.89 m/s, 110° | 226 W/m² | - |
| 1777998058 | 14.44° C | 77% | 1016.5 hPa | 0 mm | 0.89 m/s, 101° | 237 W/m² | - |
| 1777997754 | 13.89° C | 77% | 1016.6 hPa | 0 mm | 1.34 m/s, 97° | 380 W/m² | - |
| 1777997452 | 13.89° C | 78% | 1016.6 hPa | 0 mm | 1.34 m/s, 92° | 289 W/m² | - |
| 1777997150 | 13.89° C | 78% | 1016.3 hPa | 0 mm | 2.24 m/s, 107° | 269 W/m² | - |
| 1777996847 | 13.89° C | 81% | 1016.6 hPa | 0 mm | 1.34 m/s, 111° | 288 W/m² | - |
| 1777996543 | 13.89° C | 82% | 1016.3 hPa | 0 mm | 2.24 m/s, 92° | 260 W/m² | - |
| 1777996239 | 13.89° C | 82% | 1016.4 hPa | 0 mm | 0.89 m/s, 79° | 297 W/m² | - |
| 1777995935 | 13.89° C | 82% | 1016.4 hPa | 0 mm | 1.34 m/s, 103° | 386 W/m² | - |
| 1777995632 | 13.33° C | 84% | 1016.7 hPa | 0 mm | 1.34 m/s, 95° | 410 W/m² | - |
| 1777995330 | 13.33° C | 86% | 1016.4 hPa | 0 mm | 0.45 m/s, 54° | 326 W/m² | - |
| 1777995026 | 13.33° C | 88% | 1016.3 hPa | 0 mm | 1.34 m/s, 114° | 264 W/m² | - |
| 1777994723 | 12.78° C | 88% | 1016.4 hPa | 0 mm | 1.34 m/s, 48° | 233 W/m² | - |
| 1777994419 | 13.33° C | 88% | 1016.3 hPa | 0 mm | 1.34 m/s, 48° | 233 W/m² | - |
| 1777994114 | 13.33° C | 88% | 1016.3 hPa | 0 mm | 0.89 m/s, 100° | 179 W/m² | - |
| 1777993812 | 13.33° C | 87% | 1016.3 hPa | 0 mm | 0.89 m/s, 96° | 317 W/m² | - |
| 1777993508 | 12.78° C | 87% | 1016.1 hPa | 0 mm | 1.79 m/s, 28° | 215 W/m² | - |
| 1777993204 | 12.78° C | 88% | 1016.1 hPa | 0 mm | 1.34 m/s, 80° | 174 W/m² | - |
| 1777992901 | 12.22° C | 92% | 1016 hPa | 0 mm | 0.89 m/s, 61° | 171 W/m² | - |
| 1777992599 | 11.67° C | 95% | 1016.2 hPa | 0 mm | 0.89 m/s, 111° | 188 W/m² | - |
* Rain latest hour (hover to see other rain measurements)
** Current wind speed in m/s (hover to see current wind gust speed)